FW0208 Weather Reports


time (UTC)temp
F
wind
direction
speed
knots
gust
knots
rain 1hr
in
rain 24hr
in
rain mn
in
humidity
%
barometer
mb
20260506194515 53 59 0.9 3.5 0.00 0.02 0.02 67 1010.4
20260506193011 53 37 3.5 5.2 0.00 0.02 0.02 66 1010.3
20260506191510 54 47 2.6 7.0 0.00 0.02 0.02 66 1010.2
20260506190012 55 59 3.5 8.7 0.00 0.02 0.02 65 1010.0
20260506184506 55 38 2.6 7.0 0.00 0.02 0.02 65 1009.8
20260506183006 56 74 2.6 6.1 0.00 0.02 0.02 64 1009.6
20260506181503 56 52 3.5 6.1 0.00 0.02 0.02 64 1009.3
20260506180001 56 59 3.5 7.8 0.00 0.02 0.02 64 1009.1
20260506174559 56 26 2.6 7.8 0.00 0.02 0.02 64 1009.0
20260506173134 57 64 6.1 12.2 0.00 0.02 0.02 67 1008.7
20260506171557 58 327 7.8 12.2 0.00 0.02 0.02 70 1008.6
20260506170055 58 338 7.0 13.0 0.00 0.02 0.02 70 1008.5
20260506164555 58 324 7.8 12.2 0.00 0.02 0.02 70 1008.4
20260506163059 57 325 4.3 9.6 0.00 0.02 0.02 70 1008.4
20260506161557 58 327 3.5 11.3 0.00 0.02 0.02 69 1008.3
20260506160053 58 332 4.3 9.6 0.00 0.02 0.02 70 1008.4
20260506154553 57 333 4.3 8.7 0.00 0.02 0.02 71 1008.4
20260506153051 58 345 6.1 10.4 0.00 0.02 0.02 69 1008.4
20260506151551 59 339 5.2 10.4 0.00 0.02 0.02 66 1008.4
20260506150150 62 348 7.0 13.0 0.00 0.02 0.02 62 1008.4
20260506144602 64 307 7.8 13.0 0.00 0.02 0.02 62 1008.3
20260506143046 63 338 8.7 13.0 0.00 0.02 0.02 63 1008.3
20260506141543 62 355 6.1 13.0 0.00 0.02 0.02 66 1008.1
20260506140040 61 343 9.6 13.0 0.00 0.02 0.02 66 1008.3
20260506134538 60 315 7.8 13.0 0.00 0.02 0.02 69 1008.3
20260506133041 60 325 7.8 13.0 0.00 0.02 0.02 68 1008.4
20260506131534 61 349 7.8 13.9 0.00 0.02 0.02 69 1008.3
20260506130034 60 329 7.8 13.0 0.00 0.02 0.02 70 1008.2
20260506124528 59 307 7.0 13.9 0.00 0.02 0.02 70 1008.2
20260506123028 60 325 7.0 12.2 0.00 0.02 0.02 70 1008.1
20260506121527 58 340 6.1 13.0 0.00 0.02 0.02 73 1008.1
20260506120028 58 345 6.1 11.3 0.00 0.02 0.02 73 1008.1
20260506114521 58 327 7.0 13.0 0.00 0.02 0.02 73 1008.1
20260506113022 58 313 5.2 11.3 0.00 0.02 0.02 73 1008.0
20260506111520 58 327 5.2 11.3 0.00 0.02 0.02 75 1008.1
20260506110020 58 341 7.0 11.3 0.00 0.02 0.02 76 1008.0
20260506104517 57 326 3.5 11.3 0.00 0.02 0.02 76 1008.1
20260506103016 57 360 4.3 11.3 0.00 0.02 0.02 76 1008.2
20260506101514 56 329 6.1 11.3 0.00 0.02 0.02 76 1008.1
20260506100012 55 317 6.1 12.2 0.00 0.02 0.02 80 1008.1
20260506094506 55 342 6.1 11.3 0.00 0.02 0.02 82 1008.1
20260506093002 53 322 6.1 12.2 0.00 0.02 0.02 87 1008.0
20260506091559 52 355 5.2 13.0 0.00 0.02 0.02 89 1008.0
20260506090059 51 342 4.3 10.4 0.00 0.02 0.02 90 1007.9
20260506084559 51 328 6.1 10.4 0.01 0.02 0.02 90 1007.9
20260506083058 51 313 4.3 9.6 0.02 0.02 0.02 91 1007.7
20260506081550 50 342 3.5 8.7 0.02 0.02 0.02 91 1007.8
20260506080104 50 329 3.5 7.8 0.02 0.02 0.02 90 1007.7
20260506073047 50 337 5.2 8.7 0.00 0.00 0.00 88 1007.7
20260506071543 49 10 3.5 9.6 0.00 0.00 0.00 88 1007.6
20260506061539 50 355 5.2 11.3 0.00 0.00 0.00 83 1007.3
20260506044539 49 355 7.0 13.9 0.00 0.00 0.00 79 1007.1
20260506043030 49 355 5.2 9.6 0.00 0.00 0.00 80 1007.1
20260506041538 49 5 4.3 9.6 0.00 0.00 0.00 80 1007.0
20260506040032 49 346 4.3 9.6 0.00 0.00 0.00 80 1007.2
20260506034531 49 334 5.2 10.4 0.00 0.00 0.00 80 1007.3
20260506033024 48 5 4.3 10.4 0.00 0.00 0.00 80 1007.2
20260506031524 48 355 6.1 10.4 0.00 0.00 0.00 80 1007.3
20260506030022 47 329 3.5 8.7 0.00 0.00 0.00 81 1007.4
20260506024522 47 335 4.3 9.6 0.00 0.00 0.00 81 1007.5
20260506023020 47 5 4.3 8.7 0.00 0.00 0.00 81 1007.5
20260506021517 47 11 3.5 8.7 0.00 0.00 0.00 81 1007.7
20260506020015 47 28 3.5 7.8 0.00 0.00 0.00 81 1007.6
20260506014515 47 350 2.6 8.7 0.00 0.00 0.00 81 1007.8
20260506013015 47 360 3.5 8.7 0.00 0.00 0.00 81 1007.7
20260506011532 47 346 3.5 8.7 0.00 0.00 0.00 81 1007.8
20260506010010 47 13 3.5 7.8 0.00 0.00 0.00 81 1007.8
20260506004516 48 346 2.6 8.7 0.00 0.00 0.00 81 1007.9
20260506003005 48 337 5.2 8.7 0.00 0.00 0.00 82 1008.0
20260506001502 48 344 2.6 5.2 0.00 0.00 0.00 81 1008.2
20260505234601 49 355 3.5 7.8 0.00 0.00 0.00 81 1008.2
20260505233055 49 350 4.3 8.7 0.00 0.00 0.00 81 1008.4
20260505231555 50 9 4.3 7.8 0.00 0.00 0.00 80 1008.3
20260505230057 50 5 3.5 8.7 0.00 0.00 0.00 79 1008.4
20260505224549 50 9 1.7 7.8 0.00 0.00 0.00 79 1008.4
20260505223046 50 5 4.3 10.4 0.00 0.00 0.00 79 1008.5
20260505221556 51 37 3.5 11.3 0.00 0.00 0.00 79 1008.4
20260505220054 51 17 4.3 11.3 0.00 0.00 0.00 80 1008.4
20260505214550 51 360 4.3 8.7 0.00 0.00 0.00 80 1008.4
20260505213041 51 348 3.5 9.6 0.00 0.00 0.00 80 1008.4
20260505211541 51 5 4.3 10.4 0.00 0.00 0.00 80 1008.5
20260505210046 52 336 5.2 12.2 0.00 0.00 0.00 80 1008.5
20260505204542 52 11 5.2 9.6 0.00 0.00 0.00 80 1008.4
20260505203037 52 360 6.1 10.4 0.00 0.00 0.00 80 1008.5
20260505201538 52 328 4.3 9.6 0.00 0.00 0.00 80 1008.3
20260505200035 52 326 5.2 12.2 0.00 0.00 0.00 79 1008.1